Flag for Germany Weather past 2 weeks in Bingen am Rhein, Rhineland-Palatinate, Germany

Now
76 °F

Sunny.


Feels Like: 78 °F
Forecast: 72 / 100 °F
Wind: 3 mph from North

Location: Wiesbaden Airport

Current Time: Jul 3, 2015 at 8:25:10 AM

Latest Report: Jul 3, 2015 at 7:58 AM


Visibility: N/A

Pressure: 30.19 "Hg

Humidity: 73%

Dew point: 67 °F

Location of Bingen am RheinLocation

Historic Weather in Bingen am Rhein — Graph

°F

Bingen am Rhein temperature yesterday

Maximum temperature yesterday: 95 °F (at 5:58 PM)
Minimum temperature yesterday: 73 °F (at 4:58 AM)
Average temperature yesterday: 84 °F

Past Weeks' High & Low Weather Summary

 TemperatureHumidityPressure
High95 °F (Jul 2, 5:58 PM)100% (Jun 18, 8:55 AM)30.24 "Hg (Jun 18, 8:55 AM)
Low48 °F (Jun 23, 4:58 AM)25% (Jun 30, 6:58 PM)29.68 "Hg (Jun 23, 12:04 AM)
Average65 °F68%30.07 "Hg
* Reported Jun 18 6:58 AM — Jul 3 6:58 AM, Bingen am Rhein, Weather by CustomWeather, © 2015

Note: Actual official high and low records may vary slightly from our data, if they occured in-between our weather recording intervals... More about our weather records

Advertising

Bingen am Rhein weather history for previous 24 hours

 ConditionsComfort  
Time TempWeatherWind HumidityBarometerVisibility
6:58 AM
Fri, Jul 3
76 °FSunny.5 mph73%30.17 "HgN/A
5:58 AM73 °FClear.1 mph77%30.16 "HgN/A
4:58 AM74 °FClear.5 mph70%30.14 "HgN/A
3:58 AM73 °FPassing clouds.No wind74%30.13 "HgN/A
2:58 AM73 °FPassing clouds.No wind75%30.13 "HgN/A
1:58 AM74 °FClear.3 mph72%30.12 "HgN/A
12:58 AM77 °FClear.No wind65%30.11 "HgN/A
11:58 PM
Thu, Jul 2
81 °FClear.2 mph58%30.12 "HgN/A
10:58 PM83 °FClear.6 mph51%30.10 "HgN/A
9:58 PM86 °FPassing clouds.3 mph49%30.10 "HgN/A
8:58 PM89 °FPassing clouds.3 mph42%30.08 "HgN/A
7:58 PM92 °FSunny.6 mph41%30.07 "HgN/A
6:58 PM95 °FSunny.5 mph33%30.07 "HgN/A
5:58 PM95 °FSunny.8 mph34%30.07 "HgN/A
4:58 PM95 °FSunny.6 mph34%30.07 "HgN/A
3:58 PM95 °FSunny.5 mph36%30.08 "HgN/A
2:58 PM93 °FSunny.9 mph36%30.08 "HgN/A
1:58 PM91 °FSunny.8 mph38%30.09 "HgN/A
12:58 PM90 °FSunny.5 mph41%30.10 "HgN/A
11:58 AM87 °FSunny.5 mph44%30.11 "HgN/A
10:58 AM85 °FSunny.3 mph48%30.11 "HgN/A
9:58 AM82 °FSunny.8 mph51%30.11 "HgN/A
8:58 AM79 °FSunny.9 mph54%30.11 "HgN/A
Weather by CustomWeather, © 2015

See weather overviewHow to use our weather pages